Time,TemperatureF,DewpointF,PressureIn,WindDirection,WindDirectionDegrees,WindSpeedMPH,WindSpeedGustMPH,Humidity,HourlyPrecipIn,Conditions,Clouds,dailyrainin,SolarRadiationWatts/m^2,SoftwareType,DateUTC
2013-01-19 00:02:00,24.0,-2.0,-100.00,WNW,291,4.0,17.0,32,0.00,,,0.00,0.000000,,2013-01-19 07:02:00,
2013-01-19 00:12:00,24.0,-2.0,-100.00,WNW,291,4.0,17.0,32,0.00,,,0.00,0.000000,,2013-01-19 07:12:00,
2013-01-19 00:22:00,24.0,-2.0,-100.00,WNW,291,4.0,17.0,32,0.00,,,0.00,0.000000,,2013-01-19 07:22:00,
2013-01-19 00:32:00,24.0,-2.0,-100.00,WNW,291,4.0,17.0,32,0.00,,,0.00,0.000000,,2013-01-19 07:32:00,
2013-01-19 00:53:00,28.0,-8.0,-100.00,West,259,11.0,18.0,20,0.00,,,0.00,0.000000,,2013-01-19 07:53:00,
2013-01-19 01:02:00,28.0,-8.0,-100.00,West,259,11.0,18.0,20,0.00,,,0.00,0.000000,,2013-01-19 08:02:00,
2013-01-19 01:12:00,28.0,-8.0,-100.00,West,259,11.0,18.0,20,0.00,,,0.00,0.000000,,2013-01-19 08:12:00,
2013-01-19 01:22:00,28.0,-8.0,-100.00,West,259,11.0,18.0,20,0.00,,,0.00,0.000000,,2013-01-19 08:22:00,
2013-01-19 01:32:00,28.0,-8.0,-100.00,West,259,11.0,18.0,20,0.00,,,0.00,0.000000,,2013-01-19 08:32:00,
2013-01-19 01:53:00,20.0,1.0,-100.00,NW,309,3.0,10.0,42,0.00,,,0.00,0.000000,,2013-01-19 08:53:00,
2013-01-19 02:02:00,20.0,1.0,-100.00,NW,309,3.0,10.0,42,0.00,,,0.00,0.000000,,2013-01-19 09:02:00,
2013-01-19 02:12:00,20.0,1.0,-100.00,NW,309,3.0,10.0,42,0.00,,,0.00,0.000000,,2013-01-19 09:12:00,
2013-01-19 02:23:00,20.0,1.0,-100.00,NW,309,3.0,10.0,42,0.00,,,0.00,0.000000,,2013-01-19 09:23:00,
2013-01-19 02:32:00,20.0,1.0,-100.00,NW,309,3.0,10.0,42,0.00,,,0.00,0.000000,,2013-01-19 09:32:00,
2013-01-19 02:53:00,22.0,-1.0,-100.00,ENE,74,2.0,7.0,35,0.00,,,0.00,0.000000,,2013-01-19 09:53:00,
2013-01-19 03:02:00,22.0,-1.0,-100.00,ENE,74,2.0,7.0,35,0.00,,,0.00,0.000000,,2013-01-19 10:02:00,
2013-01-19 03:12:00,22.0,-1.0,-100.00,ENE,74,2.0,7.0,35,0.00,,,0.00,0.000000,,2013-01-19 10:12:00,
2013-01-19 03:22:00,22.0,-1.0,-100.00,ENE,74,2.0,7.0,35,0.00,,,0.00,0.000000,,2013-01-19 10:22:00,
2013-01-19 03:32:00,22.0,-1.0,-100.00,ENE,74,2.0,7.0,35,0.00,,,0.00,0.000000,,2013-01-19 10:32:00,
2013-01-19 03:53:00,21.0,1.0,-100.00,South,183,4.0,8.0,40,0.00,,,0.00,0.000000,,2013-01-19 10:53:00,
2013-01-19 04:03:00,21.0,1.0,-100.00,South,183,4.0,8.0,40,0.00,,,0.00,0.000000,,2013-01-19 11:03:00,
2013-01-19 04:12:00,21.0,1.0,-100.00,South,183,4.0,8.0,40,0.00,,,0.00,0.000000,,2013-01-19 11:12:00,
2013-01-19 05:53:00,23.0,-3.0,-100.00,WSW,251,4.0,12.0,31,0.00,,,0.00,0.000000,,2013-01-19 12:53:00,
2013-01-19 06:03:00,23.0,-3.0,-100.00,WSW,251,4.0,12.0,31,0.00,,,0.00,0.000000,,2013-01-19 13:03:00,
2013-01-19 06:12:00,23.0,-3.0,-100.00,WSW,251,4.0,12.0,31,0.00,,,0.00,0.000000,,2013-01-19 13:12:00,
2013-01-19 06:22:00,23.0,-3.0,-100.00,WSW,251,4.0,12.0,31,0.00,,,0.00,0.000000,,2013-01-19 13:22:00,
2013-01-19 06:33:00,23.0,-3.0,-100.00,WSW,251,4.0,12.0,31,0.00,,,0.00,0.000000,,2013-01-19 13:33:00,
2013-01-19 06:53:00,22.0,-2.0,-100.00,SW,222,2.0,9.0,34,0.00,,,0.00,0.000000,,2013-01-19 13:53:00,
2013-01-19 07:02:00,22.0,-2.0,-100.00,SW,222,2.0,9.0,34,0.00,,,0.00,0.000000,,2013-01-19 14:02:00,
2013-01-19 07:12:00,22.0,-2.0,-100.00,SW,222,2.0,9.0,34,0.00,,,0.00,0.000000,,2013-01-19 14:12:00,
2013-01-19 07:23:00,22.0,-2.0,-100.00,SW,222,2.0,9.0,34,0.00,,,0.00,0.000000,,2013-01-19 14:23:00,
2013-01-19 07:33:00,22.0,-2.0,-100.00,SW,222,2.0,9.0,34,0.00,,,0.00,0.000000,,2013-01-19 14:33:00,
2013-01-19 07:53:00,24.0,-4.0,-100.00,WNW,285,7.0,17.0,28,0.00,,,0.00,2.000000,,2013-01-19 14:53:00,
2013-01-19 08:03:00,24.0,-4.0,-100.00,WNW,285,7.0,17.0,28,0.00,,,0.00,2.000000,,2013-01-19 15:03:00,
2013-01-19 08:12:00,24.0,-4.0,-100.00,WNW,285,7.0,17.0,28,0.00,,,0.00,2.000000,,2013-01-19 15:12:00,
2013-01-19 08:23:00,24.0,-4.0,-100.00,WNW,285,7.0,17.0,28,0.00,,,0.00,2.000000,,2013-01-19 15:23:00,
2013-01-19 08:33:00,24.0,-4.0,-100.00,WNW,285,7.0,17.0,28,0.00,,,0.00,2.000000,,2013-01-19 15:33:00,
2013-01-19 08:53:00,24.0,-4.0,-100.00,WNW,290,6.0,15.0,29,0.00,,,0.00,13.000000,,2013-01-19 15:53:00,
2013-01-19 09:03:00,24.0,-4.0,-100.00,WNW,290,6.0,15.0,29,0.00,,,0.00,13.000000,,2013-01-19 16:03:00,
2013-01-19 09:13:00,24.0,-4.0,-100.00,WNW,290,6.0,15.0,29,0.00,,,0.00,13.000000,,2013-01-19 16:13:00,
2013-01-19 09:23:00,24.0,-4.0,-100.00,WNW,290,6.0,15.0,29,0.00,,,0.00,13.000000,,2013-01-19 16:23:00,
2013-01-19 09:33:00,24.0,-4.0,-100.00,WNW,290,6.0,15.0,29,0.00,,,0.00,13.000000,,2013-01-19 16:33:00,
2013-01-19 09:34:00,30.0,-2.0,-100.00,NW,305,6.0,13.0,24,0.00,,,0.00,211.000000,,2013-01-19 16:34:00,
2013-01-19 09:54:00,30.0,-2.0,-100.00,NW,305,6.0,13.0,24,0.00,,,0.00,211.000000,,2013-01-19 16:54:00,
2013-01-19 10:03:00,30.0,-2.0,-100.00,NW,305,6.0,13.0,24,0.00,,,0.00,211.000000,,2013-01-19 17:03:00,
2013-01-19 10:19:00,30.0,-2.0,-100.00,NW,305,6.0,13.0,24,0.00,,,0.00,211.000000,,2013-01-19 17:19:00,
2013-01-19 10:28:00,30.0,-2.0,-100.00,NW,305,6.0,13.0,24,0.00,,,0.00,211.000000,,2013-01-19 17:28:00,
2013-01-19 10:34:00,31.0,-2.0,-100.00,WNW,285,7.0,13.0,23,0.00,,,0.00,455.000000,,2013-01-19 17:34:00,
2013-01-19 10:55:00,31.0,-2.0,-100.00,WNW,285,7.0,13.0,23,0.00,,,0.00,455.000000,,2013-01-19 17:55:00,
2013-01-19 11:11:00,31.0,-2.0,-100.00,WNW,285,7.0,13.0,23,0.00,,,0.00,455.000000,,2013-01-19 18:11:00,
2013-01-19 11:26:00,31.0,-2.0,-100.00,WNW,285,7.0,13.0,23,0.00,,,0.00,455.000000,,2013-01-19 18:26:00,
2013-01-19 11:34:00,35.0,-1.0,-100.00,NW,305,6.0,13.0,21,0.00,,,0.00,560.000000,,2013-01-19 18:34:00,
2013-01-19 12:02:00,35.0,-1.0,-100.00,NW,305,6.0,13.0,21,0.00,,,0.00,560.000000,,2013-01-19 19:02:00,
2013-01-19 12:09:00,35.0,-1.0,-100.00,NW,305,6.0,13.0,21,0.00,,,0.00,560.000000,,2013-01-19 19:09:00,
2013-01-19 12:20:00,35.0,-1.0,-100.00,NW,305,6.0,13.0,21,0.00,,,0.00,560.000000,,2013-01-19 19:20:00,
2013-01-19 12:29:00,35.0,-1.0,-100.00,NW,305,6.0,13.0,21,0.00,,,0.00,560.000000,,2013-01-19 19:29:00,
2013-01-19 12:34:00,37.0,-1.0,-100.00,NW,322,5.0,8.0,19,0.00,,,-99.99,606.000000,,2013-01-19 19:34:00,
2013-01-19 13:10:00,37.0,-1.0,-100.00,NW,322,5.0,8.0,19,0.00,,,-99.99,606.000000,,2013-01-19 20:10:00,
2013-01-19 13:19:00,37.0,-1.0,-100.00,NW,322,5.0,8.0,19,0.00,,,-99.99,606.000000,,2013-01-19 20:19:00,
2013-01-19 13:25:00,37.0,-1.0,-100.00,NW,322,5.0,8.0,19,0.00,,,-99.99,606.000000,,2013-01-19 20:25:00,
2013-01-19 13:59:00,40.0,0.0,-100.00,WNW,289,5.0,7.0,18,0.00,,,-99.99,589.000000,,2013-01-19 20:59:00,
2013-01-19 14:07:00,40.0,0.0,-100.00,WNW,289,5.0,7.0,18,0.00,,,-99.99,589.000000,,2013-01-19 21:07:00,
2013-01-19 14:14:00,40.0,0.0,-100.00,WNW,289,5.0,7.0,18,0.00,,,-99.99,589.000000,,2013-01-19 21:14:00,
2013-01-19 14:25:00,40.0,0.0,-100.00,WNW,289,5.0,7.0,18,0.00,,,-99.99,589.000000,,2013-01-19 21:25:00,
2013-01-19 14:34:00,42.0,2.0,-100.00,NW,309,4.0,7.0,18,0.00,,,0.00,508.000000,,2013-01-19 21:34:00,
2013-01-19 15:00:00,42.0,2.0,-100.00,NW,309,4.0,7.0,18,0.00,,,0.00,508.000000,,2013-01-19 22:00:00,
2013-01-19 15:14:00,42.0,2.0,-100.00,NW,309,4.0,7.0,18,0.00,,,0.00,508.000000,,2013-01-19 22:14:00,
2013-01-19 15:34:00,43.0,1.0,-100.00,NNW,331,3.0,6.0,17,0.00,,,0.00,371.000000,,2013-01-19 22:34:00,
2013-01-19 15:58:00,43.0,1.0,-100.00,NNW,331,3.0,6.0,17,0.00,,,0.00,371.000000,,2013-01-19 22:58:00,
2013-01-19 16:13:00,43.0,1.0,-100.00,NNW,331,3.0,6.0,17,0.00,,,0.00,371.000000,,2013-01-19 23:13:00,
2013-01-19 16:25:00,43.0,1.0,-100.00,NNW,331,3.0,6.0,17,0.00,,,0.00,371.000000,,2013-01-19 23:25:00,
2013-01-19 16:34:00,43.0,1.0,-100.00,ENE,74,2.0,6.0,17,0.00,,,0.00,196.000000,,2013-01-19 23:34:00,
2013-01-19 17:07:00,43.0,1.0,-100.00,ENE,74,2.0,6.0,17,0.00,,,0.00,196.000000,,2013-01-20 00:07:00,
2013-01-19 17:15:00,43.0,1.0,-100.00,ENE,74,2.0,6.0,17,0.00,,,0.00,196.000000,,2013-01-20 00:15:00,
2013-01-19 17:25:00,43.0,1.0,-100.00,ENE,74,2.0,6.0,17,0.00,,,0.00,196.000000,,2013-01-20 00:25:00,
2013-01-19 17:34:00,33.0,-3.0,-100.00,ENE,62,2.0,4.0,21,0.00,,,0.00,7.000000,,2013-01-20 00:34:00,
2013-01-19 17:57:00,33.0,-3.0,-100.00,ENE,62,2.0,4.0,21,0.00,,,0.00,7.000000,,2013-01-20 00:57:00,
2013-01-19 18:04:00,33.0,-3.0,-100.00,ENE,62,2.0,4.0,21,0.00,,,0.00,7.000000,,2013-01-20 01:04:00,
2013-01-19 18:19:00,33.0,-3.0,-100.00,ENE,62,2.0,4.0,21,0.00,,,0.00,7.000000,,2013-01-20 01:19:00,
2013-01-19 18:34:00,33.0,-5.0,-100.00,West,269,4.0,7.0,19,0.00,,,0.00,0.000000,,2013-01-20 01:34:00,
2013-01-19 19:04:00,33.0,-5.0,-100.00,West,269,4.0,7.0,19,0.00,,,0.00,0.000000,,2013-01-20 02:04:00,
2013-01-19 19:15:00,33.0,-5.0,-100.00,West,269,4.0,7.0,19,0.00,,,0.00,0.000000,,2013-01-20 02:15:00,
2013-01-19 19:26:00,33.0,-5.0,-100.00,West,269,4.0,7.0,19,0.00,,,0.00,0.000000,,2013-01-20 02:26:00,
2013-01-19 19:59:00,35.0,-7.0,-100.00,WSW,250,8.0,15.0,16,0.00,,,0.00,0.000000,,2013-01-20 02:59:00,
2013-01-19 20:08:00,35.0,-7.0,-100.00,WSW,250,8.0,15.0,16,0.00,,,0.00,0.000000,,2013-01-20 03:08:00,
2013-01-19 20:14:00,35.0,-7.0,-100.00,WSW,250,8.0,15.0,16,0.00,,,0.00,0.000000,,2013-01-20 03:14:00,
2013-01-19 20:25:00,35.0,-7.0,-100.00,WSW,250,8.0,15.0,16,0.00,,,0.00,0.000000,,2013-01-20 03:25:00,
2013-01-19 20:34:00,31.0,-6.0,-100.00,NNW,333,4.0,14.0,19,0.00,,,0.00,0.000000,,2013-01-20 03:34:00,
2013-01-19 20:58:00,31.0,-6.0,-100.00,NNW,333,4.0,14.0,19,0.00,,,0.00,0.000000,,2013-01-20 03:58:00,
2013-01-19 21:05:00,31.0,-6.0,-100.00,NNW,333,4.0,14.0,19,0.00,,,0.00,0.000000,,2013-01-20 04:05:00,
2013-01-19 21:15:00,31.0,-6.0,-100.00,NNW,333,4.0,14.0,19,0.00,,,0.00,0.000000,,2013-01-20 04:15:00,
2013-01-19 21:25:00,31.0,-6.0,-100.00,NNW,333,4.0,14.0,19,0.00,,,0.00,0.000000,,2013-01-20 04:25:00,
2013-01-19 21:58:00,26.0,-3.0,-100.00,East,96,2.0,8.0,27,0.00,,,0.00,0.000000,,2013-01-20 04:58:00,
2013-01-19 22:04:00,26.0,-3.0,-100.00,East,96,2.0,8.0,27,0.00,,,0.00,0.000000,,2013-01-20 05:04:00,
2013-01-19 22:12:00,26.0,-3.0,-100.00,East,96,2.0,8.0,27,0.00,,,0.00,0.000000,,2013-01-20 05:12:00,
2013-01-19 22:22:00,26.0,-3.0,-100.00,East,96,2.0,8.0,27,0.00,,,0.00,0.000000,,2013-01-20 05:22:00,
2013-01-19 22:32:00,26.0,-3.0,-100.00,East,96,2.0,8.0,27,0.00,,,0.00,0.000000,,2013-01-20 05:32:00,
2013-01-19 22:53:00,24.0,-3.0,-100.00,NE,50,2.0,5.0,30,0.00,,,0.00,0.000000,,2013-01-20 05:53:00,
2013-01-19 23:02:00,24.0,-3.0,-100.00,NE,50,2.0,5.0,30,0.00,,,0.00,0.000000,,2013-01-20 06:02:00,
2013-01-19 23:12:00,24.0,-3.0,-100.00,NE,50,2.0,5.0,30,0.00,,,0.00,0.000000,,2013-01-20 06:12:00,
2013-01-19 23:22:00,24.0,-3.0,-100.00,NE,50,2.0,5.0,30,0.00,,,0.00,0.000000,,2013-01-20 06:22:00,
2013-01-19 23:33:00,24.0,-3.0,-100.00,NE,50,2.0,5.0,30,0.00,,,0.00,0.000000,,2013-01-20 06:33:00,
2013-01-19 23:53:00,24.0,-5.0,-100.00,NE,55,2.0,7.0,27,0.00,,,0.00,0.000000,,2013-01-20 06:53:00,